Regional Weather Roundup
Issued by NWS

Home | Current Version | Previous Version | Graphics & Text | Print | Product List | Glossary On
Versions: 1 2 3 4 5 6 7 8 9 10 11 12 13 14 15 16 17 18 19 20 21 22 23 24 25 26 27 28 29 30 31 32 33 34 35 36 37 38 39 40 41 42 43 44 45 46 47 48 49 50
000
ASUS43 KIND 201009
RWRIN

WEATHER ROUNDUP FOR INDIANA
NATIONAL WEATHER SERVICE INDIANAPOLIS IN
600 AM EDT SAT SEP 20 2014

NOTE: "FAIR" INDICATES FEW OR NO CLOUDS BELOW 12,000 FEET WITH NO
SIGNIFICANT WEATHER AND/OR OBSTRUCTIONS TO VISIBILITY.

* - STATION DOES NOT REPORT WEATHER SUCH AS PRECIPITATION OR FOG.

+ - STATION NOT QUALITY CONTROLLED BY THE NATIONAL WEATHER SERVICE.
    USE DATA WITH CAUTION...ESPECIALLY DEWPOINT AND RELATIVE
    HUMIDITY OBSERVATIONS.

INZ001>003-010>013-019-020-201100-
NORTHWEST INDIANA

CITY           SKY/WX    TMP DP  RH WIND       PRES   REMARKS
GARY /AIRPORT/ CLEAR     63  52  67 S8        29.95R
KNOX *+        PTCLDY    55  50  83 S6        29.98R
LA PORTE +     MOCLDY    55  50  85 S5        29.99R
MICHIGAN CITY+ MOCLDY    61  50  67 S10G17    29.97S
MONTICELLO +   PTCLDY    55  51  89 S5        30.00S
RENSSELAER +   PTCLDY    55  54  94 S5        29.99S
VALPARAISO     MOCLDY    56  51  84 S7        29.98R

$$

LMZ046-743>745-201100-
SOUTHERN LAKE MICHIGAN

STATION/POSITION TIME  TEMP WIND        PRES
                       AIR  DIR/SP/G
                 (UTC) (F)  (DEG/KT/KT) (MB)
MICHIGAN CITY    1000   62  160/ 16/ 22   N/A

$$

INZ004-005-014>016-021>024-201100-
NORTH CENTRAL INDIANA

CITY           SKY/WX    TMP DP  RH WIND       PRES   REMARKS
GOSHEN         PTCLDY    57  50  77 S7        30.00R
LOGANSPORT +   PTCLDY    52  46  82 S7        30.02S
PERU/GRISSOM   CLEAR     56  56 100 S6        30.02R
ROCHESTER +    PTCLDY    59  54  82 S8        30.01S
SOUTH BEND     MOCLDY    59  50  72 SW9       29.99R
WARSAW +       PTCLDY    57  50  77 CALM      30.01R

$$

INZ006>009-017-018-025>027-201100-
NORTHEAST INDIANA

CITY           SKY/WX    TMP DP  RH WIND       PRES   REMARKS
ANGOLA *+      CLEAR     54  48  82 S5        30.00S
AUBURN +       CLEAR     52  46  82 CALM      30.02F
FORT WAYNE     MOCLDY    50  47  89 SW7       30.03R
HUNTINGTON +   CLEAR     55  51  86 S5        30.02S

$$

INZ028-029-035-036-043>045-051>053-201100-
WEST CENTRAL INDIANA

CITY           SKY/WX    TMP DP  RH WIND       PRES   REMARKS
GREENCASTLE +  CLEAR     52  52 100 CALM      30.04S
LAFAYETTE      CLEAR     54  51  90 CALM      30.01S
TERRE HAUTE    CLEAR     51  49  92 CALM      30.03S

$$

INZ030>032-037>040-046>048-054>057-064-065-201100-
CENTRAL INDIANA

CITY           SKY/WX    TMP DP  RH WIND       PRES   REMARKS
CP ATTERBURY + CLEAR     48  46  93 CALM      30.05S FOG
FISHERS *+       N/A     54  54 100 CALM      30.04R
FRANKFORT +    CLEAR    N/A N/A N/A CALM      30.04R
GREENWOOD *+   CLEAR     55  54  94 S5        30.04
INDIANAPOLIS   PTCLDY    56  52  86 S3        30.03R
-EAGLE CREEK   CLEAR     53  50  89 CALM      30.03S FOG
KOKOMO *+      CLEAR     52  46  82 S6        30.03S
MARION +       CLEAR     51  47  89 S5        30.04R
MT COMFORT *+  CLEAR     55  52  88 S6        30.04S
SHELBYVILLE    CLEAR     58  53  84 S6        30.04S
ZIONSVILLE +   CLEAR     55  50  84 S3        30.05R

$$

INZ033-034-041-042-049-050-058-059-201100-
EAST CENTRAL INDIANA

CITY           SKY/WX    TMP DP  RH WIND       PRES   REMARKS
MUNCIE         CLEAR     59  52  77 S6        30.04R

$$

INZ060-061-067>069-081>083-085>088-201100-
SOUTHWEST INDIANA

CITY           SKY/WX    TMP DP  RH WIND       PRES   REMARKS
EVANSVILLE     CLEAR     58  55  90 CALM      30.05R
WASHINGTON +   CLEAR     57  56  97 CALM      30.03S

$$

INZ062-063-066-070>080-084-089>092-201100-
SOUTH CENTRAL AND SOUTHEAST INDIANA

CITY           SKY/WX    TMP DP  RH WIND       PRES   REMARKS
BLOOMINGTON    CLEAR     54  51  90 CALM      30.04S

$$



USA.gov is the U.S. government's official web portal to all federal, state and local government web resources and services.